Back to catalog

STARLINK-6152

AliveCommunicationsVLEO
NORAD 57121·PAYLOAD·🇺🇸 United States

Launched Jun 23, 2023 from Cape Canaveral Space Force Station

Loading…

Next Passes (next 24 hours)

TLE

FreshSource: CelesTrak SupGP

Epoch: Sep 14, 2026, 13:15 UTC

1 57121C 23090W   26257.55256944  .00059643  00000+0  21598-2 0  2572
2 57121  43.0028 294.6151 0002130 286.4653 319.4691 15.27555409    10

Track STARLINK-6152 in real time with AllMySat

Download on the App Store